[[{"header":{"parameterUnit":"m.s-1","parameterCategory":1,"la1":30.2991,"la2":30.254,"lo1":-89.0895,"lo2":-89.0444,"dy":0.0017,"dx":0.0017,"nx":28,"ny":28,"refTime":"2025-11-09T03:00:00:Z","depth":0,"parameterNumber":2,"parameterNumberName":"U-component_of_WINDS"},"data":[0,0,0,0,0,0,0,0,0,0,0,0,0,0,0,0,0,0,0,0,0,0,0,0,0,0,0,0,0,0,0,0,0,0,0,0,0,0,0,0,0,0,0,0,0,0,0,0,0,0,0,0,0,0,0,0,0,0,2.1498,2.1498,0,2.154,2.154,2.1541,2.148,2.1478,2.1476,2.1474,2.1521,2.1524,2.1528,0,0,0,0,0,0,0,0,0,0,0,0,0,2.1371,2.1373,2.1498,2.1498,2.1499,2.154,2.154,2.1541,2.148,2.1478,2.1475,2.1473,2.152,2.1524,2.1528,0,0,0,0,0,0,0,0,0,0,0,0,0,2.1421,2.1374,2.1498,2.1473,2.1472,2.154,2.154,2.1541,2.1481,2.1478,2.1474,2.1471,2.1519,2.1524,2.1528,2.1623,0,0,2.1543,2.1546,0,0,0,0,0,0,0,0,2.1418,2.1425,2.1476,2.1475,2.1473,2.1501,2.1513,2.1569,2.1482,2.1478,2.1474,2.147,2.1517,2.1522,2.1537,2.1626,2.1628,2.1544,2.1547,2.1549,2.155,0,0,0,0,0,0,0,2.1415,2.1423,2.1514,2.1477,2.1475,2.1462,2.1466,2.1523,2.1515,2.1478,2.1473,2.1479,2.1516,2.1533,2.1538,2.1628,2.1544,2.1548,2.1551,2.1553,2.18,2.1804,0,0,0,0,0,0,2.1413,2.1421,2.1513,2.1516,2.1437,2.1467,2.1471,2.1496,2.1514,2.1514,2.1482,2.1476,2.1526,2.1532,2.154,2.1654,2.1549,2.1554,2.1556,2.1797,2.1801,2.1805,0,0,0,0,0,0,2.1411,2.1422,2.1511,2.1467,2.1477,2.1473,2.1501,2.1498,2.1515,2.1517,2.1516,2.15,2.1524,2.1533,2.1603,2.1655,2.1556,2.156,2.1792,2.1798,2.1803,2.1883,0,0,0,0,0,0,2.1407,2.1422,2.1456,2.1468,2.148,2.1573,2.1504,2.1501,2.1523,2.1516,2.1534,2.1534,2.1522,2.1596,2.1608,2.166,2.1564,2.1788,2.1795,2.1801,2.1876,2.1891,2.1903,0,0,0,0,0,2.1403,2.1477,2.1458,2.147,2.1523,2.1576,2.1583,2.1566,2.1527,2.1563,2.1565,2.1534,2.1647,2.1604,2.1617,2.1671,2.1784,2.1793,2.1801,2.187,2.1888,2.1903,0,0,0,0,0,0,2.1472,2.1478,2.1457,2.1537,2.1557,2.1566,2.161,2.1585,2.1617,2.1609,2.1588,2.1593,2.1669,2.1677,2.1629,2.1766,2.171,2.1721,2.1758,2.1775,2.1788,2.1786,2.1568,0,0,0,0,0,2.1497,2.1538,2.1541,2.1612,2.1623,2.1615,2.1638,2.1623,2.1643,2.1651,2.1658,2.168,2.172,2.1748,2.1785,2.1876,2.1881,2.192,2.1934,2.1945,2.1956,2.2007,2.2026,2.1832,2.1831,2.1831,0,0,2.1548,2.1556,2.1584,2.1626,2.1639,2.1685,2.1622,2.1672,2.1706,2.1659,2.1726,2.1733,2.1756,2.1838,2.1875,2.1847,2.201,2.1955,2.1964,2.1969,2.2018,2.2036,2.2053,2.1837,2.1836,2.1835,0,0,2.1665,2.1674,2.1735,2.175,2.177,2.1765,2.178,2.1793,2.1796,2.1863,2.1829,2.187,2.194,2.1958,2.1977,2.2103,2.2077,2.2116,2.2189,2.2239,2.2255,2.2268,2.2316,2.2333,2.2126,2.2127,2.2127,0,2.1727,2.1792,2.177,2.1823,2.1844,2.1802,2.1865,2.1881,2.1914,2.193,2.1898,2.1986,2.1999,2.2086,2.2117,2.2133,2.2151,2.2115,2.2254,2.2267,2.228,2.2325,2.2343,2.2131,2.2131,2.213,2.213,0,2.1868,2.1914,2.1961,2.1993,2.2019,2.2077,2.2066,2.2095,2.2079,2.2078,2.2149,2.2162,2.2203,2.2222,2.2206,2.2309,2.2291,2.2257,2.2201,2.2303,2.2346,2.2363,2.2138,2.2137,2.2135,2.2134,0,0,2.203,2.205,2.2068,2.2083,2.2103,2.2139,2.2197,2.2235,2.2262,2.2286,2.2336,2.2397,2.2366,2.2387,2.2373,2.2418,2.2521,2.2378,2.2379,2.2407,2.2637,2.2665,2.2685,2.2502,2.2505,2.2508,2.2636,0,2.2149,2.2246,2.2229,2.2325,2.2369,2.233,2.238,2.24,2.2401,2.244,2.2441,2.2486,2.244,2.2453,2.2495,2.2499,2.2567,2.2489,2.2551,2.2553,2.2548,2.2706,2.2735,2.2855,2.2652,2.2655,2.2657,0,2.23,2.233,2.2429,2.2445,2.2463,2.2508,2.2544,2.258,2.2603,2.26,2.2625,2.2604,2.2664,2.2605,2.2689,2.2636,2.2661,2.2667,2.2671,2.2678,2.2613,2.272,2.2893,2.2912,2.2683,2.268,2.2679,0,2.2412,2.2476,2.2545,2.2559,2.2578,2.2611,2.2621,2.264,2.2665,2.2697,2.2713,2.2752,2.2774,2.2805,2.2796,2.2754,2.2883,2.2823,2.2885,2.2886,2.2916,2.2914,2.3097,2.2927,2.2927,2.2927,2.2926,0,2.2547,2.2611,2.2596,2.2638,2.2709,2.269,2.2761,2.2766,2.2784,2.2829,2.2797,2.2841,2.2825,2.2868,2.2861,2.2933,2.2942,2.2944,2.2942,2.2948,2.2948,2.2965,2.2958,2.2932,2.2931,2.293,2.2929,0,2.2684,2.2676,2.2749,2.2762,2.2766,2.2818,2.283,2.2871,2.287,2.2927,2.294,2.2938,2.2987,2.2981,2.3035,2.3031,2.3122,2.3108,2.3114,2.3112,2.3176,2.3171,2.3378,2.3405,2.3215,2.3217,2.3219,0,2.2772,2.282,2.2838,2.2865,2.2877,2.2921,2.2947,2.2931,2.296,2.299,2.3028,2.3074,2.311,2.3191,2.3196,2.3238,2.3227,2.3297,2.3234,2.3239,2.3232,2.323,2.3236,2.331,2.3312,2.3314,2.3316,0,2.2931,2.2925,2.2962,2.2999,2.3031,2.3059,2.3085,2.311,2.3096,2.313,2.3179,2.3207,2.3263,2.3311,2.3351,2.3363,2.3339,2.3335,2.3352,2.336,2.3363,2.3365,2.3151,2.3331,2.3329,2.3328,2.3328,2.3327,2.3048,2.3089,2.3109,2.3153,2.317,2.3195,2.3235,2.3239,2.328,2.3323,2.3312,2.3368,2.3392,2.3443,2.346,2.3506,2.348,2.3505,2.3511,2.3518,2.3527,2.3354,2.3513,2.3512,2.3512,2.3511,2.3511,0,2.3207,2.3217,2.3257,2.3295,2.333,2.3301,2.3329,2.3361,2.3411,2.3434,2.347,2.3529,2.3575,2.3584,2.3628,2.3664,2.3654,2.3676,2.3675,2.3679,2.3545,2.3527,2.3684,2.3684,2.3684,2.3684,2.3684,2.3683,2.3293,2.3363,2.336,2.344,2.3451,2.3505,2.3524,2.3548,2.3567,2.3633,2.3671,2.3676,2.3694,2.374,2.3782,2.3784,2.3803,2.3831,2.3829,2.3705,2.3687,2.3671,2.3654,2.3834,2.3835,2.3958,2.3959,2.396]},{"header":{"parameterUnit":"m.s-1","parameterCategory":1,"la1":30.2991,"la2":30.254,"lo1":-89.0895,"lo2":-89.0444,"dy":0.0017,"dx":0.0017,"nx":28,"ny":28,"refTime":"2025-11-09T03:00:00:Z","depth":0,"parameterNumber":3,"parameterNumberName":"V-component_of_WINDS"},"data":[0,0,0,0,0,0,0,0,0,0,0,0,0,0,0,0,0,0,0,0,0,0,0,0,0,0,0,0,0,0,0,0,0,0,0,0,0,0,0,0,0,0,0,0,0,0,0,0,0,0,0,0,0,0,0,0,0,0,-0.7236,-0.7236,0,-0.7191,-0.719,-0.719,-0.7185,-0.7186,-0.7186,-0.7187,-0.7139,-0.7137,-0.7136,0,0,0,0,0,0,0,0,0,0,0,0,0,-0.732,-0.7318,-0.7236,-0.7236,-0.7235,-0.7191,-0.719,-0.719,-0.7185,-0.7186,-0.7187,-0.7187,-0.7139,-0.7137,-0.7135,0,0,0,0,0,0,0,0,0,0,0,0,0,-0.728,-0.7318,-0.7237,-0.7228,-0.7227,-0.7191,-0.719,-0.719,-0.7185,-0.7186,-0.7187,-0.7187,-0.714,-0.7138,-0.7135,-0.7105,0,0,-0.7127,-0.7126,0,0,0,0,0,0,0,0,-0.7282,-0.7277,-0.723,-0.7228,-0.7227,-0.7195,-0.7202,-0.7161,-0.7185,-0.7201,-0.7187,-0.7188,-0.7157,-0.7153,-0.7143,-0.7103,-0.71,-0.7127,-0.7125,-0.7124,-0.7124,0,0,0,0,0,0,0,-0.7285,-0.7279,-0.7218,-0.7229,-0.7227,-0.7226,-0.7221,-0.7194,-0.7175,-0.72,-0.7199,-0.7194,-0.7156,-0.7145,-0.7142,-0.71,-0.7127,-0.7125,-0.7123,-0.7122,-0.7035,-0.7034,0,0,0,0,0,0,-0.7289,-0.7281,-0.722,-0.7217,-0.7257,-0.7224,-0.7219,-0.7204,-0.7176,-0.7172,-0.7193,-0.7194,-0.7149,-0.7145,-0.714,-0.7104,-0.7124,-0.7122,-0.712,-0.7035,-0.7034,-0.7034,0,0,0,0,0,0,-0.7291,-0.7284,-0.7222,-0.7249,-0.7241,-0.7222,-0.7206,-0.7203,-0.7192,-0.7171,-0.7167,-0.7186,-0.715,-0.7143,-0.7114,-0.7102,-0.7121,-0.7118,-0.7036,-0.7035,-0.7034,-0.7031,0,0,0,0,0,0,-0.7293,-0.7285,-0.7273,-0.7249,-0.7239,-0.7197,-0.7205,-0.7202,-0.7188,-0.7188,-0.7163,-0.7159,-0.715,-0.7118,-0.7112,-0.7099,-0.7116,-0.7037,-0.7036,-0.7034,-0.7032,-0.703,-0.7028,0,0,0,0,0,-0.7296,-0.7273,-0.7272,-0.7265,-0.7224,-0.7196,-0.7191,-0.7181,-0.7187,-0.7175,-0.7162,-0.716,-0.7104,-0.7115,-0.7108,-0.7094,-0.7038,-0.7036,-0.7035,-0.7033,-0.703,-0.7028,0,0,0,0,0,0,-0.7295,-0.727,-0.7268,-0.7236,-0.7219,-0.7195,-0.718,-0.7178,-0.7157,-0.7158,-0.7146,-0.7141,-0.7112,-0.71,-0.7112,-0.7064,-0.7072,-0.7069,-0.7073,-0.7071,-0.7069,-0.7072,-0.7114,0,0,0,0,0,-0.7291,-0.7271,-0.7249,-0.7223,-0.7214,-0.7199,-0.7186,-0.718,-0.7161,-0.7153,-0.7137,-0.7119,-0.7097,-0.7083,-0.7062,-0.703,-0.7026,-0.7018,-0.7016,-0.7014,-0.7011,-0.6996,-0.6992,-0.7028,-0.7028,-0.7028,0,0,-0.7283,-0.7266,-0.7254,-0.7223,-0.7208,-0.7187,-0.7192,-0.7169,-0.7154,-0.7149,-0.7121,-0.7109,-0.7088,-0.7058,-0.7043,-0.7047,-0.7001,-0.7012,-0.7011,-0.7009,-0.6994,-0.699,-0.6987,-0.7027,-0.7027,-0.7027,0,0,-0.7257,-0.7242,-0.722,-0.7205,-0.7184,-0.7174,-0.7168,-0.7146,-0.7138,-0.711,-0.7106,-0.7087,-0.705,-0.7036,-0.7023,-0.6994,-0.6992,-0.6987,-0.6977,-0.6961,-0.6959,-0.6956,-0.6947,-0.6944,-0.6985,-0.6985,-0.6985,0,-0.7249,-0.7218,-0.7208,-0.7186,-0.7173,-0.7169,-0.7146,-0.7132,-0.7105,-0.7096,-0.71,-0.7055,-0.7039,-0.7007,-0.7,-0.6989,-0.6984,-0.699,-0.696,-0.6957,-0.6955,-0.6946,-0.6942,-0.6984,-0.6984,-0.6984,-0.6984,0,-0.721,-0.7188,-0.7173,-0.7147,-0.7132,-0.711,-0.7097,-0.7083,-0.7079,-0.7069,-0.7041,-0.7023,-0.6999,-0.6991,-0.6985,-0.6958,-0.6961,-0.6962,-0.697,-0.6951,-0.6943,-0.6939,-0.6984,-0.6984,-0.6984,-0.6984,0,0,-0.7181,-0.7152,-0.7147,-0.7136,-0.7112,-0.7095,-0.7074,-0.7051,-0.704,-0.7021,-0.7003,-0.6972,-0.6975,-0.6961,-0.6954,-0.694,-0.692,-0.6944,-0.6943,-0.6941,-0.689,-0.689,-0.6886,-0.6919,-0.6918,-0.6918,-0.6892,0,-0.7154,-0.7115,-0.7107,-0.7073,-0.7054,-0.705,-0.7032,-0.7015,-0.7006,-0.6988,-0.6977,-0.6956,-0.6959,-0.6951,-0.6938,-0.6926,-0.691,-0.6927,-0.6903,-0.6902,-0.6909,-0.6881,-0.688,-0.6857,-0.6889,-0.6888,-0.6888,0,-0.7116,-0.7098,-0.7064,-0.7044,-0.7036,-0.7019,-0.6999,-0.6981,-0.6963,-0.6957,-0.6943,-0.6938,-0.6915,-0.6924,-0.6894,-0.6906,-0.6895,-0.6888,-0.6887,-0.6884,-0.6894,-0.6879,-0.6849,-0.6846,-0.6882,-0.6883,-0.6883,0,-0.7101,-0.7068,-0.7043,-0.7034,-0.701,-0.6999,-0.6988,-0.6971,-0.6958,-0.694,-0.6932,-0.6912,-0.69,-0.6885,-0.6875,-0.6882,-0.6846,-0.6853,-0.6841,-0.6841,-0.6834,-0.6834,-0.6803,-0.6825,-0.6825,-0.6826,-0.6826,0,-0.7072,-0.7051,-0.7036,-0.7021,-0.6998,-0.6988,-0.6966,-0.6955,-0.694,-0.6923,-0.6918,-0.6903,-0.689,-0.6873,-0.6865,-0.6842,-0.6836,-0.6831,-0.683,-0.6832,-0.6833,-0.6826,-0.6827,-0.6825,-0.6825,-0.6825,-0.6825,0,-0.705,-0.7039,-0.7013,-0.6993,-0.6988,-0.6972,-0.6955,-0.6941,-0.6931,-0.691,-0.6905,-0.689,-0.6869,-0.6858,-0.6832,-0.6827,-0.6801,-0.68,-0.6808,-0.6807,-0.6796,-0.6798,-0.6759,-0.6754,-0.6779,-0.6779,-0.6779,0,-0.7033,-0.7017,-0.6996,-0.6985,-0.6975,-0.6956,-0.6944,-0.6934,-0.6922,-0.6901,-0.6889,-0.6869,-0.6852,-0.682,-0.6807,-0.6787,-0.6786,-0.6774,-0.6783,-0.6787,-0.6787,-0.6788,-0.6787,-0.6772,-0.6772,-0.6772,-0.6772,0,-0.7003,-0.6999,-0.6982,-0.6963,-0.6949,-0.6933,-0.6918,-0.6909,-0.6897,-0.6883,-0.6862,-0.6849,-0.6824,-0.6804,-0.6784,-0.6773,-0.6771,-0.6769,-0.6765,-0.6768,-0.6774,-0.6772,-0.6805,-0.677,-0.677,-0.677,-0.677,-0.677,-0.6984,-0.697,-0.6954,-0.6936,-0.6923,-0.6909,-0.6895,-0.6885,-0.6868,-0.6847,-0.6842,-0.6821,-0.6804,-0.6777,-0.6766,-0.675,-0.6752,-0.6746,-0.6745,-0.6744,-0.6744,-0.6776,-0.6746,-0.6746,-0.6746,-0.6746,-0.6746,0,-0.6955,-0.6945,-0.6928,-0.6907,-0.6893,-0.6892,-0.6876,-0.6864,-0.6845,-0.6831,-0.6815,-0.6792,-0.6773,-0.6759,-0.674,-0.673,-0.6728,-0.6725,-0.6726,-0.6724,-0.6743,-0.6749,-0.6727,-0.6727,-0.6727,-0.6727,-0.6727,-0.6727,-0.6939,-0.6916,-0.6911,-0.6882,-0.6872,-0.6852,-0.6843,-0.683,-0.6819,-0.6794,-0.6778,-0.6769,-0.6755,-0.6735,-0.6718,-0.6715,-0.6708,-0.6705,-0.6702,-0.672,-0.6722,-0.6724,-0.673,-0.6704,-0.6704,-0.6684,-0.6684,-0.6684]}]]